Brownsville, TX

1:58 PM CDT on June 28, 2017 (GMT -0500)
Brownsville-South Padre I International

Weather History for KBRO - January, 2013

Change the Weather History Date:

Wednesday, January 30, 2013

  Actual Average Record
Temperature  
Mean Temperature 60 °F 62 °F  
Max Temperature 74 °F 72 °F 90 °F (1971)
Min Temperature 45 °F 53 °F 25 °F (1949)
Degree Days  
Heating Degree Days 5 5  
Month to date heating degree days 169 171  
Since 1 July heating degree days 249 390  
Cooling Degree Days 0 2  
Month to date cooling degree days 74 60  
Year to date cooling degree days 74 60  
Growing Degree Days 10 (Base 50)    
Moisture  
Dew Point 31 °F    
Average Humidity 49    
Maximum Humidity 87    
Minimum Humidity 11    
Precipitation  
Precipitation 0.00 in 0.05 in 2.60 in (1924)
Month to date precipitation 1.48 1.23  
Year to date precipitation 1.48 1.23  
Sea Level Pressure  
Sea Level Pressure 30.02 in    
Wind  
Wind Speed 14 mph (NNW)    
Max Wind Speed 29 mph    
Max Gust Speed 40 mph    
Visibility 10 miles    
Events      
T = Trace of Precipitation, MM = Missing Value Source: NWS Daily Summary

Daily Weather History Graph

Daily Weather History Graph

Search for Another Location

Airport or City:

Trip Planner

Search our weather history database for the weather conditions in past years. The results will help you decide how hot, cold, wet, or windy it might be!

Date:

Astronomy

Jan. 30, 2013 Rise Set
Actual Time 7:14 AM CST 6:12 PM CST
Civil Twilight 6:50 AM CST 6:36 PM CST
Nautical Twilight 6:22 AM CST 7:03 PM CST
Astronomical Twilight 5:55 AM CST 7:31 PM CST
Moon 9:42 PM CST (1/30) 9:09 AM CST (1/30)
Length of Visible Light 11h 45m
Length of Day
10h 57m
Waning Gibbous, 87% of the Moon is Illuminated
Jan 30
Waning Gibbous
Feb 3
Last Quarter
Feb 10
New
Feb 17
First Quarter
Feb 25
Full

Hourly Weather History & Observations

Time (CST) Temp. Dew Point Humidity Pressure Visibility Wind Dir Wind Speed Gust Speed Precip Events Conditions
12:13 AM 73.4 °F 69.8 °F 88% 29.68 in 10.0 mi South 18.4 mph 29.9 mph N/A   Scattered Clouds
12:53 AM 73.0 °F 70.0 °F 90% 29.68 in 10.0 mi South 19.6 mph 26.5 mph N/A   Clear
1:53 AM 73.0 °F 70.0 °F 90% 29.74 in 9.0 mi WNW 12.7 mph 18.4 mph N/A   Mostly Cloudy
2:36 AM 73.4 °F 69.8 °F 88% 29.76 in 9.0 mi NW 4.6 mph - N/A   Overcast
2:53 AM 73.9 °F 70.0 °F 87% 29.77 in 9.0 mi North 4.6 mph - N/A   Overcast
3:31 AM 69.8 °F 44.6 °F 40% 29.81 in 10.0 mi North 15.0 mph 29.9 mph N/A   Overcast
3:53 AM 68.0 °F 43.0 °F 40% 29.82 in 10.0 mi North 18.4 mph 31.1 mph N/A   Overcast
4:53 AM 66.9 °F 39.9 °F 37% 29.85 in 10.0 mi North 16.1 mph 31.1 mph N/A   Overcast
5:53 AM 66.0 °F 34.0 °F 30% 29.91 in 10.0 mi North 15.0 mph 26.5 mph N/A   Overcast
6:53 AM 64.0 °F 26.1 °F 24% 29.99 in 10.0 mi NNW 17.3 mph 24.2 mph N/A   Overcast
7:53 AM 61.0 °F 28.0 °F 29% 30.04 in 10.0 mi NNW 15.0 mph 19.6 mph N/A   Clear
8:53 AM 63.0 °F 21.9 °F 21% 30.07 in 10.0 mi NNW 20.7 mph 32.2 mph N/A   Clear
9:53 AM 64.9 °F 18.0 °F 16% 30.12 in 10.0 mi NNW 21.9 mph 38.0 mph N/A   Clear
10:53 AM 66.0 °F 18.0 °F 16% 30.14 in 10.0 mi North 19.6 mph 29.9 mph N/A   Clear
11:53 AM 69.1 °F 15.1 °F 13% 30.12 in 10.0 mi NNW 19.6 mph 32.2 mph N/A   Clear
12:53 PM 71.1 °F 15.1 °F 12% 30.09 in 10.0 mi NNW 20.7 mph 31.1 mph N/A   Clear
1:53 PM 71.1 °F 14.0 °F 11% 30.07 in 10.0 mi North 15.0 mph 29.9 mph N/A   Clear
2:53 PM 71.1 °F 14.0 °F 11% 30.07 in 10.0 mi NNW 21.9 mph 34.5 mph N/A   Clear
3:53 PM 71.1 °F 14.0 °F 11% 30.07 in 10.0 mi NNW 17.3 mph 32.2 mph N/A   Clear
4:53 PM 68.0 °F 15.1 °F 13% 30.08 in 10.0 mi NNW 21.9 mph 31.1 mph N/A   Clear
5:53 PM 66.0 °F 15.1 °F 14% 30.10 in 10.0 mi NNW 16.1 mph 24.2 mph N/A   Clear
6:53 PM 62.1 °F 17.1 °F 18% 30.13 in 10.0 mi North 10.4 mph - N/A   Clear
7:53 PM 57.9 °F 19.0 °F 22% 30.17 in 10.0 mi North 3.5 mph - N/A   Clear
8:53 PM 57.0 °F 19.9 °F 24% 30.20 in 10.0 mi North 4.6 mph - N/A   Clear
9:53 PM 54.0 °F 24.1 °F 31% 30.24 in 10.0 mi Calm Calm - N/A   Clear
10:53 PM 48.9 °F 27.0 °F 43% 30.25 in 10.0 mi Calm Calm - N/A   Clear
11:53 PM 46.0 °F 28.9 °F 51% 30.27 in 10.0 mi Calm Calm - N/A   Clear